Regional Weather Roundup
Issued by NWS

Home | Current Version | Previous Version | Text Only | Print | Product List | Glossary Off
Versions: 1 2 3 4 5 6 7 8 9 10 11 12 13 14 15 16 17 18 19 20 21 22 23 24 25 26 27 28 29 30 31 32 33 34 35 36 37 38 39 40 41 42 43 44 45 46 47 48 49 50

000
ASUS43 KMKX 111511
RWRWI

WISCONSIN REGIONAL WEATHER ROUNDUP
NATIONAL WEATHER SERVICE MILWAUKEE/SULLIVAN WI
1000 AM CDT FRI JUL 11 2014

NOTE: "FAIR" INDICATES FEW OR NO CLOUDS BELOW 12,000 FEET WITH NO
SIGNIFICANT WEATHER AND/OR OBSTRUCTIONS TO VISIBILITY.

WIZ001-002-006>008-014>016-023>028-111600-
NORTHWEST WISCONSIN

CITY           SKY/WX    TMP DP  RH WIND       PRES   REMARKS
SUPERIOR ARPT  CLOUDY    58  57  98 N6        29.94S
ASHLAND        CLOUDY    65  61  87 S15G30    29.97F
HAYWARD        CLOUDY    66  62  87 S15G23    30.01R
SIREN          CLOUDY    68  63  83 S10       29.98S
RICE LAKE      CLOUDY    67  61  82 S16       30.04R
LADYSMITH      CLOUDY    67  60  80 S13G22    30.06R
EAU CLAIRE     CLOUDY    68  61  78 SW14      30.05F
MENOMONIE      LGT RAIN  65  60  84 S17G25    30.04S
NEW RICHMOND   PTSUNNY   66  63  92 S15G23    30.02F
OSCEOLA        PTSUNNY   68  65  91 S17       30.02F
$$

WIZ003>005-009-010-017-018-111600-
NORTH CENTRAL WISCONSIN

CITY           SKY/WX    TMP DP  RH WIND       PRES   REMARKS
WOODRUFF       LGT RAIN  66  59  79 S10       30.06F
RHINELANDER    CLOUDY    67  59  75 S9        30.09F
EAGLE RIVER    CLOUDY    67  57  70 S6        30.07F
LAND O LAKES   CLOUDY    67  58  73 S8        30.07F
PHILLIPS       PTSUNNY   64  61  90 S10       30.04F
TOMAHAWK       CLOUDY    67  59  76 S6        30.05F
MEDFORD        CLOUDY    64  60  86 S13       30.08F
MERRILL        CLOUDY    68  60  74 SW9       30.10F
$$

WIZ029-030-035-036-043>047-111600-
CENTRAL WISCONSIN

CITY           SKY/WX    TMP DP  RH WIND       PRES   REMARKS
WAUSAU         LGT RAIN  70  59  68 S12       30.10F
MOSINEE        PTSUNNY   70  61  73 MISG      30.13F
MARSHFIELD     CLOUDY    67  59  75 S9        30.12S
STEVENS POINT  PTSUNNY   71  58  64 S10       30.13F
WAUPACA        PTSUNNY   78  61  55 S9        30.13F
WAUTOMA        CLOUDY    75  62  64 S7        30.14F
WISC RAPIDS    CLOUDY    73  60  63 S10       30.14S
CAMP DOUGLAS   CLOUDY    70  61  73 SE5       30.13S
$$

WIZ011>013-019>022-031-037>040-048>050-111600-
NORTHEAST WISCONSIN

CITY           SKY/WX    TMP DP  RH WIND       PRES   REMARKS
ANTIGO         CLOUDY    68  61  79 S8        30.13F
STURGEON BAY   MOSUNNY   73  57  56 S8        30.15F
GREEN BAY      PTSUNNY   75  61  61 S12       30.13F
MANITOWOC      PTSUNNY   71  58  63 VRB5      30.16F
APPLETON       MOSUNNY   73  57  56 S9        30.15F
CLINTONVILLE   MOSUNNY   73  59  60 SW10      30.13F
OSHKOSH        SUNNY     75  60  59 SW9       30.14F
$$

WIZ032>034-041-042-053>061-111600-
SOUTHWEST WISCONSIN

CITY           SKY/WX    TMP DP  RH WIND       PRES   REMARKS
LA CROSSE      CLOUDY    70  61  73 S9        30.11R
SPARTA         LGT RAIN  67  57  70 S6        30.13R
VIROQUA        CLOUDY    65  59  79 S10       30.14S
BOSCOBEL       CLOUDY    70  58  65 SW5       30.14R
PRAIRIE DU CHI CLOUDY    68  55  63 S3        30.13R
PLATTEVILLE    FAIR      68  58  71 S12       30.16S
$$

WIZ056-057-062-063-064-067-068-111600-
SOUTH CENTRAL WISCONSIN

CITY           SKY/WX    TMP DP  RH WIND       PRES   REMARKS
BARABOO/DELLS  PTSUNNY   74  56  54 SW9       30.15R
LONE ROCK      CLOUDY    74  60  61 S7        30.15R
WATERTOWN      SUNNY     73  61  64 S8        30.17S
MADISON        PTSUNNY   74  58  57 S10       30.16F
MIDDLETON      FAIR      75  57  53 SW12G17   30.17S
MONROE         MOSUNNY   70  57  64 S16       30.17S
JANESVILLE     SUNNY     75  55  50 S14       30.17F
$$

WIZ051-052-058>065-066-070>072-111600-
SOUTHEAST WISCONSIN

CITY           SKY/WX    TMP DP  RH WIND       PRES   REMARKS
MILWAUKEE      MOSUNNY   75  55  49 SW10      30.19F
WAUKESHA       MOSUNNY   72  57  60 SW7       30.20S
MILWAUKEE/TIMM SUNNY     73  54  49 SW10      30.19F
RACINE         SUNNY     75  56  51 SW7       30.21S
BURLINGTON     SUNNY     73  58  59 S5        30.19F
KENOSHA        SUNNY     75  58  55 S9        30.20F
FOND DU LAC    SUNNY     74  58  57 SW12      30.16F
SHEBOYGAN      SUNNY     75  59  57 SW8       30.17F
WEST BEND      SUNNY     73  54  49 S8        30.18F
JUNEAU         SUNNY     73  42  32 S10       30.18F
$$

LSZ147-162-111600-
LAKE SUPERIOR

STATION/POSITION TIME  TEMP    WIND        PRES    WAVE
                       AIR SEA DIR/SP/G            HT/PER
                 (UTC) (F)     (DEG/KT/KT) (MB)    (FT/S)
W MID LAKE BUOY  1450   48 38  200/  8/ 10 1014.7F   1/ 3
PORT WING        1440   67     190/ 10/ 15 1013.5F
SAXON HARBOR     1400          190/  8/ 14 1014.9F
$$

LMZ867-665-643>646-111600-
LAKE MICHIGAN

STATION/POSITION TIME  TEMP    WIND        PRES    WAVE
                       AIR SEA DIR/SP/G            HT/PER
                 (UTC) (F)     (DEG/KT/KT) (MB)    (FT/S)
N MID LAKE BUOY  1450   57 54  200/ 14/ 17 1020.5F   2/ 4
NORTHPORT PIER   1400   64     160/  5/ 11 1020.7F
KEWAUNEE LAKESHO 1400   53     180/ 12/ 12 1022.2F
SHEBOYGAN LAKESH 1500   61     140/ 18/ 18 1021.6F
PORT WASHINGTON  1400   66     190/  6/  8 1022.7F
MILWAUKEE LAKESH 1400   68     170/  8/  9   N/A
S MID LAKE BUOY  1450   62 59  160/  6/  8 1023.0F   0
KENOSHA   LAKESH 1500   64     170/ 11/ 13   N/A
$$

TC  - TEMPERATURE IN CELSIUS
VSB - VISIBILITY IN STATUTE MILES
WCI - WIND CHILL INDEX
HX  - HEAT INDEX




USA.gov is the U.S. government's official web portal to all federal, state and local government web resources and services.